Canadian, TX

3:20 PM CDT on August 29, 2016 (GMT -0500)
Hemphill County

Weather History for KHHF - January, 2014

Change the Weather History Date:

Saturday, January 18, 2014

  Actual Average (KPPA) Record (KPPA)
Temperature  
Mean Temperature 44 °F -  
Max Temperature 62 °F 49 °F 70 °F (2015)
Min Temperature 25 °F 22 °F -2 °F (1984)
Degree Days  
Heating Degree Days 22    
Moisture  
Dew Point 16 °F    
Average Humidity 39    
Maximum Humidity 67    
Minimum Humidity 14    
Precipitation  
Precipitation 0.00 in - - ()
Sea Level Pressure  
Sea Level Pressure 30.11 in    
Wind  
Wind Speed 6 mph (NW)    
Max Wind Speed 31 mph    
Max Gust Speed 41 mph    
Visibility 9 miles    
Events      
Averages and records for this station are not official NWS values.
T = Trace of Precipitation, MM = Missing Value Source: NWS Daily Summary

Daily Weather History Graph

Daily Weather History Graph

Search for Another Location

Airport or City:

Trip Planner

Search our weather history database for the weather conditions in past years. The results will help you decide how hot, cold, wet, or windy it might be!

Date:

Astronomy

Jan. 18, 2014 Rise Set
Actual Time 7:50 AM CST 5:54 PM CST
Civil Twilight 7:22 AM CST 6:22 PM CST
Nautical Twilight 6:51 AM CST 6:53 PM CST
Astronomical Twilight 6:20 AM CST 7:23 PM CST
Moon 8:31 PM CST (1/18) 8:56 AM CST (1/18)
Length of Visible Light 10h 59m
Length of Day
10h 04m
Waning Gibbous, 94% of the Moon is Illuminated
Jan 18
Waning Gibbous
Jan 23
Last Quarter
Jan 30
New
Feb 6
First Quarter
Feb 14
Full

Hourly Weather History & Observations

Time (CST) Temp. Windchill Dew Point Humidity Pressure Visibility Wind Dir Wind Speed Gust Speed Precip Events Conditions
12:15 AM 32.4 °F - 16.3 °F 52% 30.05 in 10.0 mi Calm Calm - N/A   Clear
12:35 AM 31.6 °F - 16.5 °F 54% 30.04 in 10.0 mi Calm Calm - N/A   Clear
12:55 AM 29.7 °F 23.7 °F 16.2 °F 57% 30.04 in 10.0 mi WSW 5.8 mph - N/A   Clear
1:15 AM 30.7 °F - 17.1 °F 57% 30.04 in 10.0 mi Calm Calm - N/A   Clear
1:35 AM 31.1 °F - 17.1 °F 56% 30.04 in 10.0 mi Calm Calm - N/A   Clear
1:55 AM 30.6 °F - 17.6 °F 59% 30.03 in 10.0 mi Calm Calm - N/A   Clear
2:15 AM 26.2 °F 22.1 °F 15.8 °F 65% 30.05 in 10.0 mi NNE 3.5 mph - N/A   Clear
2:35 AM 28.4 °F - 17.4 °F 63% 30.05 in 10.0 mi Calm Calm - N/A   Clear
2:55 AM 30.6 °F - 17.6 °F 59% 30.05 in 10.0 mi Calm Calm - N/A   Clear
3:15 AM 25.3 °F - 15.6 °F 67% 30.05 in 10.0 mi Calm Calm - N/A   Clear
3:35 AM 27.5 °F - 17.2 °F 65% 30.05 in 10.0 mi Calm Calm - N/A   Clear
3:55 AM 29.5 °F - 17.8 °F 62% 30.05 in 10.0 mi Calm Calm - N/A   Clear
4:15 AM 29.1 °F - 17.6 °F 62% 30.05 in 10.0 mi Calm Calm - N/A   Clear
4:35 AM 28.9 °F - 17.6 °F 63% 30.04 in 10.0 mi Calm Calm - N/A   Clear
4:55 AM 30.2 °F - 18.0 °F 60% 30.04 in 10.0 mi Calm Calm - N/A   Clear
5:15 AM 27.7 °F - 17.4 °F 65% 30.03 in 10.0 mi Calm Calm - N/A   Clear
5:35 AM 28.9 °F 22.8 °F 17.4 °F 62% 30.03 in 10.0 mi SW 5.8 mph - N/A   Clear
5:55 AM 27.1 °F 23.2 °F 16.7 °F 65% 30.03 in 10.0 mi WNW 3.5 mph - N/A   Clear
6:15 AM 26.6 °F - 16.9 °F 67% 30.03 in 10.0 mi Calm Calm - N/A   Clear
6:35 AM 27.5 °F - 17.8 °F 67% 30.03 in 10.0 mi Calm Calm - N/A   Clear
6:55 AM 28.4 °F - 18.5 °F 66% 30.04 in 10.0 mi Calm Calm - N/A   Clear
7:15 AM 28.0 °F 21.7 °F 18.5 °F 67% 30.05 in 10.0 mi NW 5.8 mph - N/A   Clear
7:35 AM 30.7 °F 22.6 °F 19.8 °F 64% 30.07 in 10.0 mi NW 9.2 mph - N/A   Clear
7:55 AM 32.2 °F 25.0 °F 20.1 °F 61% 30.07 in 10.0 mi West 8.1 mph - N/A   Clear
8:15 AM 32.2 °F 27.7 °F 19.2 °F 59% 30.08 in 10.0 mi SW 4.6 mph - N/A   Clear
8:35 AM 35.2 °F 30.3 °F 19.4 °F 53% 30.09 in 10.0 mi SW 5.8 mph - N/A   Clear
8:55 AM 37.9 °F 34.4 °F 19.4 °F 47% 30.10 in 10.0 mi WSW 4.6 mph - N/A   Clear
9:15 AM 40.1 °F 38.0 °F 19.0 °F 43% 30.10 in 10.0 mi WSW 3.5 mph - N/A   Clear
9:35 AM 43.5 °F 40.1 °F 18.5 °F 37% 30.11 in 10.0 mi West 5.8 mph - N/A   Clear
9:55 AM 46.0 °F 42.5 °F 18.7 °F 34% 30.12 in 10.0 mi NW 6.9 mph - N/A   Clear
10:15 AM 48.7 °F - 19.0 °F 31% 30.12 in 10.0 mi NW 10.4 mph - N/A   Clear
10:35 AM 50.7 °F - 19.6 °F 29% 30.12 in 10.0 mi NNW 9.2 mph - N/A   Clear
10:55 AM 58.5 °F - 18.1 °F 21% 30.13 in 10.0 mi NNW 27.6 mph 33.4 mph N/A   Clear
11:15 AM 58.8 °F - 18.5 °F 21% 30.14 in 10.0 mi North 28.8 mph 38.0 mph N/A   Clear
11:35 AM 59.5 °F - 19.0 °F 21% 30.13 in 10.0 mi North 31.1 mph 40.3 mph N/A   Clear
11:55 AM 59.9 °F - 18.0 °F 20% 30.13 in 10.0 mi North 25.3 mph 41.4 mph N/A   Clear
12:15 PM 60.3 °F - 17.1 °F 19% 30.12 in 10.0 mi North 24.2 mph 39.1 mph N/A   Clear
12:35 PM 61.0 °F - 17.8 °F 19% 30.12 in 10.0 mi North 21.9 mph 36.8 mph N/A   Clear
12:55 PM 61.2 °F - 17.2 °F 18% 30.11 in 10.0 mi North 25.3 mph 40.3 mph N/A   Clear
1:15 PM 62.1 °F - 16.0 °F 17% 30.10 in 10.0 mi NNW 24.2 mph 38.0 mph N/A   Clear
1:35 PM 61.7 °F - 14.7 °F 16% 30.09 in 10.0 mi North 29.9 mph 36.8 mph N/A   Clear
1:55 PM 61.9 °F - 14.5 °F 16% 30.08 in 10.0 mi NNW 21.9 mph 31.1 mph N/A   Clear
2:15 PM 62.1 °F - 14.0 °F 15% 30.08 in 10.0 mi North 21.9 mph 32.2 mph N/A   Clear
2:35 PM 62.6 °F - 13.6 °F 15% 30.09 in 5.0 mi North 27.6 mph 36.8 mph N/A   Haze
2:55 PM 61.9 °F - 12.6 °F 15% 30.09 in 5.0 mi North 26.5 mph 34.5 mph N/A   Haze
3:15 PM 62.6 °F - 12.2 °F 14% 30.09 in 5.0 mi NNW 21.9 mph 29.9 mph N/A   Haze
3:35 PM 61.9 °F - 12.6 °F 15% 30.10 in 5.0 mi North 24.2 mph 31.1 mph N/A   Haze
3:55 PM 61.9 °F - 13.1 °F 15% 30.10 in 5.0 mi North 21.9 mph 31.1 mph N/A   Haze
4:15 PM 61.7 °F - 12.2 °F 14% 30.11 in 4.0 mi North 17.3 mph 24.2 mph N/A   Haze
4:35 PM 60.8 °F - 12.2 °F 15% 30.11 in 5.0 mi North 20.7 mph 28.8 mph N/A   Haze
4:55 PM 59.9 °F - 12.2 °F 15% 30.12 in 5.0 mi North 15.0 mph 27.6 mph N/A   Haze
5:15 PM 59.0 °F - 12.0 °F 16% 30.12 in 7.0 mi North 16.1 mph 25.3 mph N/A   Mostly Cloudy
5:35 PM 57.7 °F - 11.8 °F 16% 30.13 in 7.0 mi North 13.8 mph 23.0 mph N/A   Scattered Clouds
5:55 PM 55.6 °F - 13.1 °F 19% 30.14 in 7.0 mi North 8.1 mph - N/A   Clear
6:15 PM 53.2 °F - 13.8 °F 21% 30.15 in 7.0 mi North 5.8 mph - N/A   Clear
6:35 PM 51.3 °F - 14.0 °F 23% 30.16 in 7.0 mi North 6.9 mph - N/A   Mostly Cloudy
6:55 PM 49.8 °F - 14.7 °F 25% 30.17 in 7.0 mi North 4.6 mph - N/A   Overcast
7:15 PM 47.3 °F - 14.9 °F 27% 30.18 in 7.0 mi NW 4.6 mph - N/A   Overcast
7:35 PM 46.2 °F 45.0 °F 14.9 °F 28% 30.19 in 7.0 mi North 3.5 mph - N/A   Mostly Cloudy
7:55 PM 45.9 °F - 15.3 °F 29% 30.20 in 7.0 mi Calm Calm - N/A   Scattered Clouds
8:15 PM 46.9 °F - 15.1 °F 28% 30.21 in 7.0 mi North 3.5 mph - N/A   Overcast
8:35 PM 43.7 °F - 14.7 °F 31% 30.21 in 7.0 mi Calm Calm - N/A   Scattered Clouds
8:55 PM 36.9 °F - 13.1 °F 38% 30.21 in 7.0 mi Calm Calm - N/A   Clear
9:15 PM 41.2 °F - 14.9 °F 34% 30.21 in 7.0 mi Calm Calm - N/A   Clear
9:35 PM 36.3 °F 32.5 °F 14.0 °F 40% 30.22 in 7.0 mi SW 4.6 mph - N/A   Clear
9:55 PM 39.7 °F 34.9 °F 14.5 °F 36% 30.22 in 7.0 mi SW 6.9 mph - N/A   Clear
10:15 PM 42.6 °F - 14.7 °F 32% 30.22 in 7.0 mi Calm Calm - N/A   Clear
10:35 PM 36.1 °F 33.5 °F 14.5 °F 41% 30.23 in 7.0 mi SW 3.5 mph - N/A   Clear
10:55 PM 32.4 °F 29.1 °F 13.6 °F 46% 30.23 in 7.0 mi SSW 3.5 mph - N/A   Clear
11:15 PM 33.3 °F 28.9 °F 13.5 °F 44% 30.24 in 7.0 mi SSW 4.6 mph - N/A   Clear
11:35 PM 31.8 °F - 14.0 °F 48% 30.24 in 7.0 mi Calm Calm - N/A   Clear
11:55 PM 31.5 °F - 13.8 °F 48% 30.24 in 7.0 mi Calm Calm - N/A   Clear